Preview of NWS' New Version of Forecast
This preview is not operational and should not be used for support decisions.

Regional Weather Roundup (RWR)

Issued by National Weather Service (NWS)

                            
000
ASUS46 KSEW 162310
RWRWA 

WASHINGTON REGIONAL WEATHER ROUNDUP
NATIONAL WEATHER SERVICE SEATTLE WA
400 PM PDT TUE JUL 16 2019

NOTE:"FAIR" INDICATES FEW OR NO CLOUDS BELOW 12,000 FEET WITH NO 
SIGNIFICANT WEATHER AND/OR OBSTRUCTIONS TO VISIBILITY.

WAZ507-509-555>559-170000-
SEATTLE, TACOMA, EVERETT, AND VICINITY
  
CITY           SKY/WX    TMP DP  RH WIND       PRES   REMARKS
EVERETT        MOSUNNY   75  53  46 W7        29.99F                  
BOEING FIELD   PTSUNNY   80  52  37 NW5       29.96F                  
RENTON         PTSUNNY   79  56  45 NW5       29.95F                  
SEATAC AIRPORT MOSUNNY   78  52  40 S9        29.98F                  
JBLM-MCCHORD   MOSUNNY   79  60  51 W10       29.97F                  
PUYALLUP       FAIR      77  57  50 VRB3      29.98F                  
BREMERTON      MOSUNNY   77  53  43 W5        29.97F                  
JBLM-FT LEWIS  PTSUNNY   75  61  62 CALM      29.97F                  
TACOMA NARROWS MOSUNNY   76  55  48 S6        29.97F                  
$$
 
WAZ001-503-506-510-514-515-170000-
NORTH INTERIOR
  
CITY           SKY/WX    TMP DP  RH WIND       PRES   REMARKS
BELLINGHAM     SUNNY     72  55  55 S7        29.97F                  
FRIDAY HARBOR  MOSUNNY   69  54  58 SW6       29.99F                  
EASTSOUND      SUNNY     73  55  53 VRB7      29.96F                  
PORT ANGELES   PTSUNNY   64  56  75 W6        30.01S                  
EDIZ HOOK      FAIR      60  55  82 W20G25    30.00S                  
PORT TOWNSEND  FAIR      73  59  60 VRB5      29.97F                  
NAS WHIDBEY    PTSUNNY   66  55  67 W7        30.03F                  
ARLINGTON      MOSUNNY   77  55  46 S6        29.97F                  
BURLINGTON     SUNNY     79  57  47 W8        29.97F                  
$$
 
WAZ020-022-039-040-504-511-512-170000-
SOUTHWEST INTERIOR
  
CITY           SKY/WX    TMP DP  RH WIND       PRES   REMARKS
SHELTON        MOSUNNY   79  51  37 SW10      29.94F                  
OLYMPIA        LGT RAIN  72  57  59 SW12      29.98F                  
CHEHALIS       CLOUDY    73  61  64 VRB3      29.99F                  
KELSO          PTSUNNY   76  61  59 VRB7G16   29.98F HAZE             
VANCOUVER      MOSUNNY   81  53  37 VRB5      29.95F                  
SCAPPOOSE, OR  PTSUNNY   77  58  51 NW3       29.96F                  
PORTLAND, OR   MOSUNNY   80  53  39 VRB3      29.96F                  
$$
 
WAZ021-516-517-170000-
WASHINGTON COAST
  
CITY           SKY/WX    TMP DP  RH WIND       PRES   REMARKS
FORKS          SUNNY     68  58  70 W10       30.02S                  
HOQUIAM        MOSUNNY   70  61  73 W14       30.02F                  
ASTORIA, OR    PTSUNNY   69  59  70 W10       30.03F                  
$$
 
WAZ019-023-024-040-567>569-170000-
CASCADE MOUNTAINS AND COLUMBIA GORGE
  
CITY           SKY/WX    TMP DP  RH WIND       PRES   REMARKS
STAMPEDE PASS  CLOUDY    61  49  64 VRB6      30.06F                  
TROUTDALE, OR  SUNNY     81  54  39 N7        29.95F                  
HOOD RIVER, OR CLEAR     81  46  30 W5G17     29.94F                  
THE DALLES, OR SUNNY     83  49  30 NW21G32   29.89F                  
$$

WAZ026-027-041>044-520-521-170000-
EAST SLOPES
  
CITY           SKY/WX    TMP DP  RH WIND       PRES   REMARKS
OMAK           PTSUNNY   84  46  26 VRB5      29.86F                  
WENATCHEE      MOSUNNY   81  43  26 SW14G25   29.87F                  
ELLENSBURG     CLOUDY    76  53  44 W9        29.92F                  
YAKIMA         PTSUNNY   81  47  30 CALM      29.88F                  
SUNNYSIDE ARPT PTCLDY    84  48  28 CALM      29.87                   
YAKIMA TC      FAIR      81  45  27 N7        29.88F                  
$$

WAZ028-034-035-170000-
COLUMBIA BASIN
  
CITY           SKY/WX    TMP DP  RH WIND       PRES   REMARKS
EPHRATA        CLOUDY    80  44  27 VRB5      29.88F                  
MOSES LAKE     CLOUDY    82  50  32 NW8       29.88F                  
PASCO          MOSUNNY   87  48  25 VRB5      29.85F                  
RICHLAND ARPT  CLEAR     87  49  26 W6        29.85F                  
HERMISTON, OR  SUNNY     87  47  24 W12G24    29.86F                  
$$

WAZ036>038-170000-
NORTHEAST WASHINGTON
  
CITY           SKY/WX    TMP DP  RH WIND       PRES   REMARKS
SPOKANE GEIGER PTSUNNY   72  51  47 SE8       29.94F                  
SPOKANE FELTS  PTSUNNY   72  50  45 E7        29.93F                  
FAIRCHILD AFB  PTSUNNY   71  51  50 SE9       29.93F                  
COEURDALENE,ID PTSUNNY   71  54  54 N3        29.95F                  
DEER PARK      PTSUNNY   72  53  51 S10       29.94F                  
$$

WAZ029>033-170000-
SOUTHEAST WASHINGTON
  
CITY           SKY/WX    TMP DP  RH WIND       PRES   REMARKS
PULLMAN        PTSUNNY   75  46  35 VRB7      29.96F                  
LEWISTON, ID   PTSUNNY   82  49  31 NW12      29.90F                  
WALLA WALLA    SUNNY     83  47  28 W12       29.89F                  
PENDLETON, OR  MOSUNNY   83  49  30 NW13      29.90F                  
$$